Regional Weather Roundup
Issued by NWS

Home | Current Version | Previous Version | Text Only | Print | Product List | Glossary Off
Versions: 1 2 3 4 5 6 7 8 9 10 11 12 13 14 15 16 17 18 19 20 21 22 23 24 25 26 27 28 29 30 31 32 33 34 35 36 37 38 39 40 41 42 43 44 45 46 47 48 49 50

000
ASUS45 KSLC 212110
RWRUT

UTAH REGIONAL WEATHER ROUNDUP
NATIONAL WEATHER SERVICE SALT LAKE CITY UT
300 PM MDT THU AUG 21 2014

UTZ001>011-023>025-212200-

NORTHERN UTAH

CITY           SKY/WX    TMP DP  RH WIND       PRES   REMARKS
HILL AFB       CLOUDY    75  46  35 S9        30.10F
LOGAN          PTSUNNY   72  48  42 CALM      30.11S
OGDEN            N/A     77  46  33 E7        30.08F HAZE
PROVO AIRPORT  NOT AVBL
SALT LAKE CITY   N/A     79  46  31 E9        30.05F
VERNAL         MOSUNNY   78  47  33 VRB7      30.12F
WENDOVER         N/A     77  45  31 CALM      30.05F
HEBER CITY       N/A     75  39  27 CALM      30.14F
WEST JORDAN    MOSUNNY   79  54  41 CALM      30.10F

$$

UTZ012>022-026-027-212200-

SOUTHERN UTAH

CITY           SKY/WX    TMP DP  RH WIND       PRES   REMARKS
BRYCE CANYON   TSTM      56  51  84 NW18G29   30.31R
CEDAR CITY       N/A     74  45  35 SW10      30.15F
MILFORD          N/A     81  40  23 S12G21    30.09F
MOAB/CYNLANDS  SUNNY     83  43  24 VRB3      30.07F
PRICE            N/A     77  42  28 CALM      30.17S
ST GEORGE        N/A     86  48  26 W6        30.01S
KANAB            N/A     79  46  31 SE6       30.16F

$$

REGIONAL REPORTS     COLORADO/ARIZONA

CITY           SKY/WX    TMP DP  RH WIND       PRES   REMARKS
CRAIG, CO      CLOUDY    75  45  34 SW12      30.18F
GRAND JUNCTION CLOUDY    77  48  35 NW5       30.12S
RIFLE          CLOUDY    80  37  21 W18       30.15F
MONTROSE       PTSUNNY   82  39  21 N10       30.16F
CORTEZ         SUNNY     81  35  19 NW13      30.19S
PAGE, AZ         N/A     85  44  23 VRB6      30.08F
GRAND CANYON   LGT RAIN  70  41  34 SW9       30.27S
KINGMAN        LGT RAIN  65  60  84 E12       30.17F
FLAGSTAFF      TSTM      59  51  75 CALM      30.29F

$$

REGIONAL REPORTS    NEVADA/IDAHO/WYOMING

CITY           SKY/WX    TMP DP  RH WIND       PRES   REMARKS
LAS VEGAS, NV  PTSUNNY   84  51  31 S24G35    29.94R
ELY              N/A     77  34  21 S10G17    30.15F
ELKO             N/A     86  33  15 SW18      30.02F
POCATELLO, ID  MOSUNNY   76  51  41 S10       30.07F
BURLEY           N/A     76  51  41 S5        30.03S
EVANSTON, WY   CLOUDY    66  43  43 SW16      30.25S
ROCK SPRINGS   PTSUNNY   67  44  43 W10G22    30.21R

$$



USA.gov is the U.S. government's official web portal to all federal, state and local government web resources and services.